sat.trackr.live / text

‹ back to catalog

STARLINK-3792

NORAD 52339 · 2022-045J

PAYLOAD ACTIVE UNKNOWN

§ Identity

Operator
Country
US
Launch date
2022-04-29
Launch site
AFETR
Launch vehicle
Mass (kg)
RCS (m²)

Purposes: comms

External: N2YO · Heavens-Above · Gunter

§ Orbital elements

Epoch: 2026-05-24T15:15:40.113216Z

Period
95.44 min
Inclination
53.2146°
Eccentricity
0.0001291
Mean motion
15.08840737 rev/d
Perigee alt
538.8 km
Apogee alt
540.6 km
Semi-major
6,917.9 km
B*
3.6940e-5
RAAN
227.8260°
Arg perigee
85.6481°
Mean anomaly
274.4659°
Rev number
22,711

§ Raw data

STARLINK-37921 52339U 22045J   26144.63588094  .00000300  00000+0  36940-4 0  99932 52339  53.2146 227.8260 0001291  85.6481 274.4659 15.08840737227110

JSON: /api/v1/satellites/52339 · /tle

For live sub-satellite position, see the globe view (requires WebGL).

§ Visibility from observer

Set your observer location to see the next 7 days of passes ≥ 10°. The values pass through the URL so the page stays shareable.

No JS? Fill the form by hand. The geolocation button needs JavaScript.